Home > Weather > Bregenz > Past weeks

Flag for Austria Weather for the Past 2 Weeks in Bregenz, Vorarlberg, Austria

Now
34 °F

Passing clouds.


Feels Like: 34 °F
Forecast: 35 / 47 °F
Wind: 2 mph from North

Location: Saint Gallen-Altenrhein

Current Time: Feb 12, 2016 at 3:21:06 AM

Latest Report: Feb 12, 2016 at 2:50 AM


Visibility: N/A

Pressure: 29.74 "Hg

Humidity: 81%

Dew point: 28 °F

Location of BregenzLocation

Historic Weather in Bregenz — Graph

°F

Bregenz Temperature Yesterday

Maximum temperature yesterday: 43 °F (at 11:50 AM)
Minimum temperature yesterday: 32 °F (at 4:20 AM)
Average temperature yesterday: 39 °F

High & Low Weather Summary for the Past Weeks

 TemperatureHumidityPressure
High61 °F (Feb 7, 10:20 AM)100% (Jan 28, 2:20 AM)30.48 "Hg (Jan 28, 2:20 AM)
Low32 °F (Feb 6, 12:20 AM)29% (Feb 6, 10:50 PM)29.30 "Hg (Feb 9, 4:20 PM)
Average44 °F77%30.04 "Hg
* Reported Jan 28 2:20 AM — Feb 12 2:20 AM, Bregenz, Weather by CustomWeather, © 2016

Note: Actual official high and low records may vary slightly from our data, if they occured in-between our weather recording intervals... More about our weather records

Advertising

Bregenz Weather History for the Previous 24 Hours

 ConditionsComfort  
Time TempWeatherWind HumidityBarometerVisibility
2:20 AM
Fri, Feb 12
34 °FPassing clouds.2 mph81%29.74 "HgN/A
1:20 AM34 °FOvercast.2 mph81%29.74 "HgN/A
12:50 AM34 °FOvercast.2 mph81%29.71 "HgN/A
12:20 AM34 °FOvercast.1 mph81%29.74 "HgN/A
11:50 PM
Thu, Feb 11
36 °FOvercast.2 mph70%29.74 "HgN/A
10:50 PM34 °FClear.1 mph75%29.74 "HgN/A
10:20 PM34 °FClear.3 mph75%29.71 "Hg10 mi
9:50 PM36 °FClear.5 mph65%29.71 "Hg10 mi
9:20 PM36 °FClear.3 mph65%29.71 "Hg10 mi
8:50 PM36 °FClear.2 mph60%29.71 "Hg10 mi
8:20 PM37 °FPassing clouds.5 mph56%29.71 "HgN/A
7:50 PM37 °FClear.3 mph56%29.71 "Hg10 mi
7:20 PM37 °FClear.5 mph56%29.71 "Hg10 mi
6:50 PM37 °FClear.5 mph60%29.74 "Hg10 mi
6:20 PM37 °FClear.5 mph60%29.74 "Hg10 mi
5:50 PM39 °FClear.2 mph61%29.74 "Hg10 mi
5:20 PM41 °FSunny.2 mph53%29.74 "Hg10 mi
4:50 PM41 °FSunny.1 mph49%29.74 "Hg10 mi
4:20 PM43 °FSunny.5 mph49%29.74 "Hg10 mi
3:50 PM43 °FPassing clouds.6 mph46%29.74 "HgN/A
3:20 PM43 °FPassing clouds.5 mph46%29.74 "HgN/A
2:50 PM43 °FPassing clouds.7 mph46%29.74 "HgN/A
2:20 PM43 °FPassing clouds.5 mph39%29.74 "HgN/A
1:50 PM43 °FPassing clouds.5 mph49%29.77 "HgN/A
1:20 PM43 °FPassing clouds.7 mph46%29.77 "HgN/A
12:50 PM43 °FSunny.7 mph46%29.77 "Hg10 mi
12:20 PM43 °FPassing clouds.6 mph42%29.80 "HgN/A
11:50 AM43 °FPassing clouds.5 mph46%29.80 "HgN/A
11:20 AM41 °FPassing clouds.5 mph49%29.80 "HgN/A
10:50 AM41 °FPassing clouds.5 mph49%29.80 "HgN/A
10:20 AM41 °FPassing clouds.6 mph53%29.80 "HgN/A
9:50 AM39 °FPassing clouds.3 mph52%29.80 "HgN/A
9:20 AM39 °FPassing clouds.5 mph56%29.80 "HgN/A
8:50 AM39 °FPartly sunny.2 mph52%29.80 "HgN/A
8:20 AM39 °FPartly sunny.6 mph48%29.80 "HgN/A
7:50 AM37 °FPartly sunny.10 mph56%29.77 "HgN/A
7:20 AM37 °FPassing clouds.10 mph56%29.77 "HgN/A
6:50 AM37 °FOvercast.10 mph56%29.80 "HgN/A
6:20 AM37 °FOvercast.8 mph60%29.80 "HgN/A
5:50 AM37 °FClear.9 mph60%29.80 "HgN/A
5:20 AM39 °FPartly cloudy.9 mph56%29.80 "HgN/A
4:50 AM37 °FPassing clouds.5 mph56%29.80 "HgN/A
4:20 AM32 °FClear.1 mph75%29.77 "Hg10 mi
3:50 AM37 °FClear.2 mph56%29.77 "Hg10 mi
3:20 AM37 °FChilly.5 mph60%29.77 "HgN/A
Weather by CustomWeather, © 2016

See weather overviewHow to use our weather pages